User: anonymous   Login
Location: Unspecified
(0.0000°N, 0.0000°E)
Time: 09:08:13
(UTC+01:00)
Language:

Cosmos 494 Rocket - Orbit

View from above orbital plane
View from above orbital plane
View from above satellite
View from above satellite

Ground track
Ground track

The orbit data is extracted from the following two-line orbital elements,

1 06061U 72043B   18054.46186848  .00000078  00000-0  32652-4 0  9999
2 06061  74.0550  76.0525 0019227 146.9571 213.2790 14.40524248394492
Epoch (UTC): 23 February 2018 11:05:05
Eccentricity: 0.0019227
inclination: 74.0550°
perigee height: 743 km
apogee height: 770 km
right ascension of ascending node: 76.0525°
argument of perigee: 146.9571°
revolutions per day: 14.40524248
mean anomaly at epoch: 213.2790°
orbit number at epoch: 39449

The dashed part of the orbit path shows where the satellite is in the earth's shadow,  

DLR